Flag for Russia Weather past 2 weeks in Yekaterinburg, Russia

Now
54 °F

Mostly cloudy.


Feels Like: 53 °F
Forecast: 43 / 58 °F
Wind: 3 mph from Northwest

Location: Ekaterinburg

Current Time: Aug 29, 2015 at 12:58:36 AM

Latest Report: Aug 29, 2015 at 12:00 AM


Visibility: N/A

Pressure: 29.83 "Hg

Humidity: 100%

Dew point: 54 °F

Location of YekaterinburgLocation

Historic Weather in Yekaterinburg — Graph

°F

Yekaterinburg temperature yesterday

Maximum temperature yesterday: 63 °F (at 12:30 PM)
Minimum temperature yesterday: 50 °F (at 12:00 AM)
Average temperature yesterday: 55 °F

Past Weeks' High & Low Weather Summary

 TemperatureHumidityPressure
High75 °F (Aug 14, 2:00 PM)100% (Aug 14, 12:00 AM)30.12 "Hg (Aug 14, 12:00 AM)
Low34 °F (Aug 26, 5:00 AM)43% (Aug 16, 2:00 PM)29.36 "Hg (Aug 18, 1:00 AM)
Average54 °F85%29.83 "Hg
* Reported Aug 13 11:00 PM — Aug 28 11:30 PM, Yekaterinburg, Weather by CustomWeather, © 2015

Note: Actual official high and low records may vary slightly from our data, if they occured in-between our weather recording intervals... More about our weather records

Advertising

Yekaterinburg weather history for previous 24 hours

 ConditionsComfort  
Time TempWeatherWind HumidityBarometerVisibility
11:30 PM
Fri, Aug 28
54 °FMostly cloudy.6 mph100%29.83 "Hg4 mi
11:00 PM54 °FFog.3 mph100%29.83 "Hg2 mi
10:30 PM54 °FSprinkles. Fog.3 mph100%29.83 "Hg3 mi
10:00 PM54 °FSprinkles. Mostly cloudy.No wind100%29.83 "Hg6 mi
9:30 PM55 °FSprinkles. Mostly cloudy.No wind94%29.83 "HgN/A
9:00 PM55 °FSprinkles. More clouds than sun.1 mph94%29.83 "HgN/A
8:30 PM57 °FSprinkles. Mostly cloudy.3 mph94%29.86 "HgN/A
8:00 PM57 °FSprinkles. Mostly cloudy.3 mph94%29.86 "Hg6 mi
7:30 PM57 °FSprinkles. More clouds than sun.No wind94%29.86 "Hg6 mi
7:00 PM57 °FSprinkles. More clouds than sun.3 mph94%29.86 "HgN/A
6:30 PM59 °FSprinkles. More clouds than sun.3 mph94%29.86 "HgN/A
6:00 PM59 °FMore clouds than sun.3 mph94%29.86 "HgN/A
5:30 PM59 °FMore clouds than sun.6 mph94%29.86 "HgN/A
5:00 PM59 °FMore clouds than sun.6 mph94%29.86 "HgN/A
4:30 PM59 °FMore clouds than sun.6 mph94%29.86 "HgN/A
4:00 PM59 °FMore clouds than sun.8 mph88%29.86 "HgN/A
3:30 PM59 °FMore clouds than sun.8 mph94%29.86 "HgN/A
3:00 PM59 °FMostly cloudy.6 mph94%29.86 "HgN/A
2:30 PM57 °FSprinkles. Mostly cloudy.8 mph100%29.86 "Hg6 mi
2:00 PM59 °FSleet. Mostly cloudy.8 mph94%29.86 "Hg4 mi
1:30 PM63 °FMostly cloudy.8 mph83%29.86 "HgN/A
1:00 PM63 °FPartly sunny.10 mph83%29.86 "HgN/A
12:30 PM63 °FPartly sunny.10 mph83%29.86 "HgN/A
12:00 PM61 °FMostly cloudy.13 mph88%29.89 "HgN/A
11:30 AM61 °FMostly cloudy.10 mph88%29.89 "HgN/A
11:00 AM59 °FMostly cloudy.13 mph94%29.89 "HgN/A
10:30 AM59 °FMostly cloudy.10 mph88%29.89 "HgN/A
10:00 AM57 °FPartly sunny.8 mph94%29.89 "HgN/A
9:30 AM55 °FBroken clouds.6 mph94%29.89 "HgN/A
9:00 AM55 °FMostly cloudy.6 mph94%29.89 "HgN/A
8:30 AM54 °FSprinkles. Mostly cloudy.3 mph94%29.89 "HgN/A
8:00 AM52 °FSprinkles. Mostly cloudy.3 mph100%29.89 "HgN/A
7:30 AM52 °FMostly cloudy.3 mph94%29.89 "HgN/A
7:00 AM50 °FSprinkles. Mostly cloudy.3 mph100%29.89 "HgN/A
6:30 AM50 °FSprinkles. Mostly cloudy.3 mph100%29.89 "Hg5 mi
6:00 AM50 °FSleet. Mostly cloudy.3 mph100%29.89 "Hg4 mi
5:30 AM50 °FSprinkles. Mostly cloudy.3 mph100%29.89 "HgN/A
5:00 AM50 °FSprinkles. Mostly cloudy.3 mph100%29.89 "HgN/A
4:30 AM50 °FMostly cloudy.3 mph100%29.92 "HgN/A
4:00 AM50 °FSprinkles. Mostly cloudy.3 mph100%29.92 "HgN/A
3:30 AM50 °FSprinkles. Mostly cloudy.3 mph100%29.92 "HgN/A
3:00 AM50 °FMostly cloudy.3 mph100%29.92 "HgN/A
2:30 AM50 °FMostly cloudy.3 mph100%29.95 "HgN/A
2:00 AM50 °FMostly cloudy.3 mph100%29.95 "HgN/A
1:30 AM50 °FSprinkles. Mostly cloudy.3 mph100%29.95 "HgN/A
1:00 AM50 °FSprinkles. Mostly cloudy.3 mph100%29.95 "HgN/A
12:30 AM50 °FSprinkles. Mostly cloudy.3 mph100%29.95 "HgN/A
12:00 AM50 °FMostly cloudy.3 mph94%29.95 "HgN/A
Weather by CustomWeather, © 2015

See weather overviewHow to use our weather pages